Home   Weather   Mosjøen   Past weeks

Flag for Norway Past Weather in Mosjøen, Norway — Yesterday and Last 2 Weeks

Now
55 °F

Cool.


Feels Like: 55 °F
Forecast: 42 / 51 °F
Wind: 1 mph from North

Location: Mosjoen Kjaerstad

Current Time: Aug 20, 2017 at 9:38:53 pm

Latest Report: Aug 20, 2017 at 8:00 pm


Visibility: N/A

Pressure: 29.62 "Hg

Humidity: 87%

Dew Point: 52 °F

Location of MosjøenLocation

Past Weather in Mosjøen — Graph

°F

Mosjøen Temperature Yesterday

Maximum temperature yesterday: 67 °F (at 12:00 pm)
Minimum temperature yesterday: 49 °F (at 5:00 am)
Average temperature yesterday: 59 °F

High & Low Weather Summary for the Past Weeks

 TemperatureHumidityPressure
High70 °F (Aug 17, 6:00 pm)95% (Aug 19, 6:00 am)30.13 "Hg (Aug 19, 6:00 am)
Low45 °F (Aug 15, 3:00 am)44% (Aug 17, 6:00 pm)29.29 "Hg (Aug 20, 5:00 am)
Average55 °F82%29.75 "Hg
* Reported Aug 7 12:00 pm — Aug 20 8:00 pm, Mosjøen. Weather by CustomWeather, © 2017

Note: Actual official high and low records may vary slightly from our data, if they occured in-between our weather recording intervals... More about our weather records

Advertising

Mosjøen Weather History for the Previous 24 Hours

Scroll right to see more
 ConditionsComfort  
Time TempWeatherWind HumidityBarometerVisibility
8:00 pm
Sun, Aug 20
55 °FCool.1 mph87%29.62 "HgN/A
7:00 pm56 °FCool.1 mph88%29.58 "HgN/A
6:00 pm57 °FCool.2 mph82%29.55 "HgN/A
5:00 pm58 °FCool.2 mph82%29.50 "HgN/A
4:00 pm57 °FCool.1 mph89%29.50 "HgN/A
3:00 pm58 °FCool.2 mph86%29.47 "HgN/A
2:00 pm58 °FCool.1 mph88%29.44 "HgN/A
1:00 pm57 °FCool.3 mph90%29.41 "HgN/A
12:00 pm57 °FCool.2 mph91%29.41 "HgN/A
11:00 am56 °FCool.2 mph92%29.38 "HgN/A
10:00 am56 °FCool.2 mph93%29.35 "HgN/A
9:00 am56 °FCool.3 mph93%29.35 "HgN/A
8:00 am55 °FCool.1 mph94%29.32 "HgN/A
7:00 am54 °FCool.2 mph95%29.32 "HgN/A
6:00 am54 °FCool.1 mph94%29.29 "HgN/A
5:00 am54 °FCool.1 mph94%29.29 "HgN/A
4:00 amN/A No windN/AN/AN/A
3:00 am55 °FCool.No wind93%29.35 "HgN/A
2:00 am55 °FCool.2 mph93%29.35 "HgN/A
1:00 am56 °FCool.3 mph92%29.38 "HgN/A
12:00 am56 °FCool.2 mph92%29.41 "HgN/A
11:00 pm
Sat, Aug 19
57 °FCool.2 mph91%29.44 "HgN/A
10:00 pm58 °FCool.1 mph84%29.47 "HgN/A
9:00 pm61 °FCool.2 mph74%29.47 "HgN/A
Weather by CustomWeather, © 2017

See weather overviewHow to use our weather pages